owner,sensor,date,latitude,longitude,vertical_datum,wind_speed,wind_to_direction,wind_speed_of_gust,qcFlag 
TCOON,ioos:station:TCOON:057:1,2010-05-01T00:00:00Z,28.4460,-96.3961,0.0,5.1,150.0,,'1111122,1111122,1111122' 
TCOON,ioos:station:TCOON:057:1,2010-05-01T01:00:00Z,28.4460,-96.3961,0.0,4.6,140.0,,'1111122,1111122,1111122' 
TCOON,ioos:station:TCOON:057:1,2010-05-01T03:00:00Z,28.4460,-96.3961,0.0,3.6,140.0,,'1111122,1111122,1111122' 
TCOON,ioos:station:TCOON:057:1,2010-05-01T04:00:00Z,28.4460,-96.3961,0.0,4.6,140.0,,'1111122,1111122,1111122' 
TCOON,ioos:station:TCOON:057:1,2010-05-01T05:00:00Z,28.4460,-96.3961,0.0,3.6,130.0,,'1111122,1111122,1111122' 
TCOON,ioos:station:TCOON:057:1,2010-05-01T06:00:00Z,28.4460,-96.3961,0.0,4.1,130.0,,'1111122,1111122,1111122' 
TCOON,ioos:station:TCOON:057:1,2010-05-01T07:00:00Z,28.4460,-96.3961,0.0,5.1,140.0,,'1111122,1111122,1111122' 
TCOON,ioos:station:TCOON:057:1,2010-05-01T08:00:00Z,28.4460,-96.3961,0.0,4.6,150.0,,'1111122,1111122,1111122' 
TCOON,ioos:station:TCOON:057:1,2010-05-01T09:00:00Z,28.4460,-96.3961,0.0,4.6,160.0,,'1111122,1111122,1111122' 
TCOON,ioos:station:TCOON:057:1,2010-05-01T10:00:00Z,28.4460,-96.3961,0.0,4.6,160.0,,'1111122,1111122,1111122' 
TCOON,ioos:station:TCOON:057:1,2010-05-01T11:00:00Z,28.4460,-96.3961,0.0,0.0,202.0,0.3,'11111222,11111222,11111222' 
TCOON,ioos:station:TCOON:057:1,2010-05-01T12:00:00Z,28.4460,-96.3961,0.0,0.0,154.0,99.0,'11111222,11111222,11144222' 
TCOON,ioos:station:TCOON:057:1,2010-05-01T13:00:00Z,28.4460,-96.3961,0.0,0.1,110.0,0.5,'11111222,11111222,11111222' 
TCOON,ioos:station:TCOON:057:1,2010-05-01T14:00:00Z,28.4460,-96.3961,0.0,1.5,90.0,,'1111122,1111122,1111122' 
TCOON,ioos:station:TCOON:057:1,2010-05-01T15:00:00Z,28.4460,-96.3961,0.0,2.6,90.0,,'1111122,1111122,1111122' 
TCOON,ioos:station:TCOON:057:1,2010-05-01T16:00:00Z,28.4460,-96.3961,0.0,4.1,110.0,,'1111122,1111122,1111122' 
TCOON,ioos:station:TCOON:057:1,2010-05-01T17:00:00Z,28.4460,-96.3961,0.0,4.1,120.0,,'1111122,1111122,1111122' 
TCOON,ioos:station:TCOON:057:1,2010-05-01T18:00:00Z,28.4460,-96.3961,0.0,3.6,120.0,,'1111122,1111122,1111122' 
TCOON,ioos:station:TCOON:057:1,2010-05-01T19:00:00Z,28.4460,-96.3961,0.0,4.1,120.0,,'1111122,1111122,1111122' 
TCOON,ioos:station:TCOON:057:1,2010-05-01T20:00:00Z,28.4460,-96.3961,0.0,4.6,130.0,,'1111122,1111122,1111122' 
TCOON,ioos:station:TCOON:057:1,2010-05-01T21:00:00Z,28.4460,-96.3961,0.0,3.6,130.0,,'1111122,1111122,1111122' 
TCOON,ioos:station:TCOON:057:1,2010-05-01T22:00:00Z,28.4460,-96.3961,0.0,3.6,150.0,,'1111122,1111122,1111122' 
TCOON,ioos:station:TCOON:057:1,2010-05-01T23:00:00Z,28.4460,-96.3961,0.0,3.1,160.0,,'1111122,1111122,1111122' 
TCOON,ioos:station:TCOON:057:1,2010-05-02T00:00:00Z,28.4460,-96.3961,0.0,3.1,160.0,,'1111122,1111122,1111122' 
TCOON,ioos:station:TCOON:057:1,2010-05-02T01:00:00Z,28.4460,-96.3961,0.0,2.6,140.0,,'1111122,1111122,1111122' 
TCOON,ioos:station:TCOON:057:1,2010-05-02T02:00:00Z,28.4460,-96.3961,0.0,2.6,140.0,,'1111122,1111122,1111122' 
TCOON,ioos:station:TCOON:057:1,2010-05-02T03:00:00Z,28.4460,-96.3961,0.0,2.6,130.0,,'1111122,1111122,1111122' 
TCOON,ioos:station:TCOON:057:1,2010-05-02T04:00:00Z,28.4460,-96.3961,0.0,2.6,160.0,,'1111122,1111122,1111122' 
TCOON,ioos:station:TCOON:057:1,2010-05-02T05:00:00Z,28.4460,-96.3961,0.0,0.0,208.0,99.0,'11111222,11111222,11144222' 
TCOON,ioos:station:TCOON:057:1,2010-05-02T06:00:00Z,28.4460,-96.3961,0.0,0.1,303.0,1.5,'11111222,11111222,11111222' 
TCOON,ioos:station:TCOON:057:1,2010-05-02T07:00:00Z,28.4460,-96.3961,0.0,0.3,299.0,1.8,'11111222,11111222,11111222' 
TCOON,ioos:station:TCOON:057:1,2010-05-02T08:00:00Z,28.4460,-96.3961,0.0,5.7,350.0,,'1111122,1111122,1111122' 
TCOON,ioos:station:TCOON:057:1,2010-05-02T09:00:00Z,28.4460,-96.3961,0.0,5.1,350.0,,'1111122,1111122,1111122' 
TCOON,ioos:station:TCOON:057:1,2010-05-02T10:00:00Z,28.4460,-96.3961,0.0,5.1,340.0,,'1111122,1111122,1111122' 
TCOON,ioos:station:TCOON:057:1,2010-05-02T11:00:00Z,28.4460,-96.3961,0.0,6.2,340.0,,'1111122,1111122,1111122' 
TCOON,ioos:station:TCOON:057:1,2010-05-02T12:00:00Z,28.4460,-96.3961,0.0,5.7,340.0,,'1111122,1111122,1111122' 
TCOON,ioos:station:TCOON:057:1,2010-05-02T13:00:00Z,28.4460,-96.3961,0.0,6.7,320.0,,'1111122,1111122,1111122' 
TCOON,ioos:station:TCOON:057:1,2010-05-02T14:00:00Z,28.4460,-96.3961,0.0,6.2,340.0,,'1111122,1111122,1111122' 
TCOON,ioos:station:TCOON:057:1,2010-05-02T15:00:00Z,28.4460,-96.3961,0.0,4.6,350.0,,'1111122,1111122,1111122' 
TCOON,ioos:station:TCOON:057:1,2010-05-02T16:00:00Z,28.4460,-96.3961,0.0,2.1,360.0,,'1111122,1111122,1111122' 
TCOON,ioos:station:TCOON:057:1,2010-05-02T17:00:00Z,28.4460,-96.3961,0.0,0.0,3.0,99.0,'11111222,11111222,11144222' 
TCOON,ioos:station:TCOON:057:1,2010-05-02T18:00:00Z,28.4460,-96.3961,0.0,0.0,12.0,99.0,'11111222,11111222,11144222' 
TCOON,ioos:station:TCOON:057:1,2010-05-02T19:00:00Z,28.4460,-96.3961,0.0,0.0,12.0,0.2,'11111222,11111222,11111222' 
TCOON,ioos:station:TCOON:057:1,2010-05-02T20:00:00Z,28.4460,-96.3961,0.0,1.0,10.0,,'1111122,1111122,1111122' 
TCOON,ioos:station:TCOON:057:1,2010-05-02T21:00:00Z,28.4460,-96.3961,0.0,0.0,31.0,99.0,'11111222,11111222,11144222' 
TCOON,ioos:station:TCOON:057:1,2010-05-02T22:00:00Z,28.4460,-96.3961,0.0,3.1,150.0,,'1111122,1111122,1111122' 
TCOON,ioos:station:TCOON:057:1,2010-05-02T23:00:00Z,28.4460,-96.3961,0.0,2.1,150.0,,'1111122,1111122,1111122' 
TCOON,ioos:station:TCOON:057:1,2010-05-03T00:00:00Z,28.4460,-96.3961,0.0,2.6,190.0,,'1111122,1111122,1111122' 
TCOON,ioos:station:TCOON:057:1,2010-05-03T01:00:00Z,28.4460,-96.3961,0.0,0.0,210.0,1.0,'11111222,11111222,11111222' 
TCOON,ioos:station:TCOON:057:1,2010-05-03T02:00:00Z,28.4460,-96.3961,0.0,0.5,200.0,,'1111122,1111122,1111122' 
TCOON,ioos:station:TCOON:057:1,2010-05-03T03:00:00Z,28.4460,-96.3961,0.0,0.3,172.0,1.3,'11111222,11111222,11111222' 
TCOON,ioos:station:TCOON:057:1,2010-05-03T04:00:00Z,28.4460,-96.3961,0.0,2.1,160.0,,'1111122,1111122,1111122' 
TCOON,ioos:station:TCOON:057:1,2010-05-03T05:00:00Z,28.4460,-96.3961,0.0,2.6,150.0,,'1111122,1111122,1111122' 
TCOON,ioos:station:TCOON:057:1,2010-05-03T06:00:00Z,28.4460,-96.3961,0.0,2.6,150.0,,'1111122,1111122,1111122' 
TCOON,ioos:station:TCOON:057:1,2010-05-03T07:00:00Z,28.4460,-96.3961,0.0,3.1,140.0,,'1111122,1111122,1111122' 
TCOON,ioos:station:TCOON:057:1,2010-05-03T08:00:00Z,28.4460,-96.3961,0.0,2.6,150.0,,'1111122,1111122,1111122' 
TCOON,ioos:station:TCOON:057:1,2010-05-03T09:00:00Z,28.4460,-96.3961,0.0,1.5,150.0,,'1111122,1111122,1111122' 
TCOON,ioos:station:TCOON:057:1,2010-05-03T10:00:00Z,28.4460,-96.3961,0.0,1.0,140.0,,'1111122,1111122,1111122' 
TCOON,ioos:station:TCOON:057:1,2010-05-03T11:00:00Z,28.4460,-96.3961,0.0,1.5,130.0,,'1111122,1111122,1111122' 
TCOON,ioos:station:TCOON:057:1,2010-05-03T12:00:00Z,28.4460,-96.3961,0.0,3.6,160.0,,'1111122,1111122,1111122' 
TCOON,ioos:station:TCOON:057:1,2010-05-03T13:00:00Z,28.4460,-96.3961,0.0,3.1,150.0,,'1111122,1111122,1111122' 
TCOON,ioos:station:TCOON:057:1,2010-05-03T14:00:00Z,28.4460,-96.3961,0.0,1.5,150.0,,'1111122,1111122,1111122' 
TCOON,ioos:station:TCOON:057:1,2010-05-03T15:00:00Z,28.4460,-96.3961,0.0,2.1,160.0,,'1111122,1111122,1111122' 
TCOON,ioos:station:TCOON:057:1,2010-05-03T16:00:00Z,28.4460,-96.3961,0.0,2.1,130.0,,'1111122,1111122,1111122' 
TCOON,ioos:station:TCOON:057:1,2010-05-03T17:00:00Z,28.4460,-96.3961,0.0,0.0,138.0,99.0,'11111222,11111222,11144222' 
TCOON,ioos:station:TCOON:057:1,2010-05-03T18:00:00Z,28.4460,-96.3961,0.0,0.0,151.0,99.0,'11111222,11111222,11144222' 
TCOON,ioos:station:TCOON:057:1,2010-05-03T19:00:00Z,28.4460,-96.3961,0.0,0.0,147.0,99.0,'11111222,11111222,11144222' 
TCOON,ioos:station:TCOON:057:1,2010-05-03T21:00:00Z,28.4460,-96.3961,0.0,0.0,90.0,99.0,'11111222,11111222,11144222' 
TCOON,ioos:station:TCOON:057:1,2010-05-03T22:00:00Z,28.4460,-96.3961,0.0,1.5,130.0,,'1111122,1111122,1111122' 
TCOON,ioos:station:TCOON:057:1,2010-05-03T23:00:00Z,28.4460,-96.3961,0.0,3.1,140.0,,'1111122,1111122,1111122' 
TCOON,ioos:station:TCOON:057:1,2010-05-04T00:00:00Z,28.4460,-96.3961,0.0,2.6,150.0,,'1111122,1111122,1111122' 
TCOON,ioos:station:TCOON:057:1,2010-05-04T01:00:00Z,28.4460,-96.3961,0.0,2.6,150.0,,'1111122,1111122,1111122' 
TCOON,ioos:station:TCOON:057:1,2010-05-04T02:00:00Z,28.4460,-96.3961,0.0,2.6,160.0,,'1111122,1111122,1111122' 
TCOON,ioos:station:TCOON:057:1,2010-05-04T03:00:00Z,28.4460,-96.3961,0.0,2.6,170.0,,'1111122,1111122,1111122' 
TCOON,ioos:station:TCOON:057:1,2010-05-04T04:00:00Z,28.4460,-96.3961,0.0,0.0,217.0,99.0,'11111222,11111222,11144222' 
TCOON,ioos:station:TCOON:057:1,2010-05-04T05:00:00Z,28.4460,-96.3961,0.0,0.0,251.0,99.0,'11111222,11111222,11144222' 
TCOON,ioos:station:TCOON:057:1,2010-05-04T06:00:00Z,28.4460,-96.3961,0.0,4.6,360.0,,'1111122,1111122,1111122' 
TCOON,ioos:station:TCOON:057:1,2010-05-04T07:00:00Z,28.4460,-96.3961,0.0,6.2,30.0,,'1111122,1111122,1111122' 
TCOON,ioos:station:TCOON:057:1,2010-05-04T08:00:00Z,28.4460,-96.3961,0.0,5.7,30.0,,'1111122,1111122,1111122' 
TCOON,ioos:station:TCOON:057:1,2010-05-04T09:00:00Z,28.4460,-96.3961,0.0,4.1,20.0,,'1111122,1111122,1111122' 
TCOON,ioos:station:TCOON:057:1,2010-05-04T10:00:00Z,28.4460,-96.3961,0.0,4.1,30.0,,'1111122,1111122,1111122' 
TCOON,ioos:station:TCOON:057:1,2010-05-04T11:00:00Z,28.4460,-96.3961,0.0,2.1,60.0,,'1111122,1111122,1111122' 
TCOON,ioos:station:TCOON:057:1,2010-05-04T12:00:00Z,28.4460,-96.3961,0.0,1.5,70.0,,'1111122,1111122,1111122' 
TCOON,ioos:station:TCOON:057:1,2010-05-04T13:00:00Z,28.4460,-96.3961,0.0,0.3,66.0,1.3,'11111222,11111222,11111222' 
TCOON,ioos:station:TCOON:057:1,2010-05-04T14:00:00Z,28.4460,-96.3961,0.0,1.5,21.0,2.0,'11111222,11111222,11111222' 
TCOON,ioos:station:TCOON:057:1,2010-05-04T15:00:00Z,28.4460,-96.3961,0.0,0.0,32.0,99.0,'11111222,11111222,11144222' 
TCOON,ioos:station:TCOON:057:1,2010-05-04T16:00:00Z,28.4460,-96.3961,0.0,0.0,47.0,99.0,'11111222,11111222,11144222' 
TCOON,ioos:station:TCOON:057:1,2010-05-04T17:00:00Z,28.4460,-96.3961,0.0,0.0,61.0,99.0,'11111222,11111222,11144222' 
TCOON,ioos:station:TCOON:057:1,2010-05-04T18:00:00Z,28.4460,-96.3961,0.0,2.1,159.0,2.6,'11111222,11111222,11111222' 
TCOON,ioos:station:TCOON:057:1,2010-05-04T19:00:00Z,28.4460,-96.3961,0.0,2.8,151.0,3.4,'11111222,11111222,11111222' 
TCOON,ioos:station:TCOON:057:1,2010-05-04T20:00:00Z,28.4460,-96.3961,0.0,3.3,164.0,3.9,'11111222,11111222,11111222' 
TCOON,ioos:station:TCOON:057:1,2010-05-04T21:00:00Z,28.4460,-96.3961,0.0,3.6,162.0,4.0,'11111222,11111222,11111222' 
TCOON,ioos:station:TCOON:057:1,2010-05-04T22:00:00Z,28.4460,-96.3961,0.0,4.3,170.0,5.1,'11111222,11111222,11111222' 
TCOON,ioos:station:TCOON:057:1,2010-05-04T23:00:00Z,28.4460,-96.3961,0.0,4.9,172.0,5.5,'11111222,11111222,11111222' 
TCOON,ioos:station:TCOON:057:1,2010-05-05T00:00:00Z,28.4460,-96.3961,0.0,5.3,177.0,6.0,'11111222,11111222,11111222' 
TCOON,ioos:station:TCOON:057:1,2010-05-05T01:00:00Z,28.4460,-96.3961,0.0,5.8,183.0,6.7,'11111222,11111222,11111222' 
TCOON,ioos:station:TCOON:057:1,2010-05-05T02:00:00Z,28.4460,-96.3961,0.0,4.3,198.0,5.2,'11111222,11111222,11111222' 
TCOON,ioos:station:TCOON:057:1,2010-05-05T03:00:00Z,28.4460,-96.3961,0.0,3.1,203.0,4.2,'11111222,11111222,11111222' 
TCOON,ioos:station:TCOON:057:1,2010-05-05T04:00:00Z,28.4460,-96.3961,0.0,3.2,202.0,4.1,'11111222,11111222,11111222' 
TCOON,ioos:station:TCOON:057:1,2010-05-05T05:00:00Z,28.4460,-96.3961,0.0,4.2,198.0,5.4,'11111222,11111222,11111222' 
TCOON,ioos:station:TCOON:057:1,2010-05-05T06:00:00Z,28.4460,-96.3961,0.0,3.3,205.0,4.0,'11111222,11111222,11111222' 
TCOON,ioos:station:TCOON:057:1,2010-05-05T07:00:00Z,28.4460,-96.3961,0.0,2.3,204.0,3.4,'11111222,11111222,11111222' 
TCOON,ioos:station:TCOON:057:1,2010-05-05T08:00:00Z,28.4460,-96.3961,0.0,3.3,191.0,4.0,'11111222,11111222,11111222' 
TCOON,ioos:station:TCOON:057:1,2010-05-05T09:00:00Z,28.4460,-96.3961,0.0,2.4,193.0,3.0,'11111222,11111222,11111222' 
TCOON,ioos:station:TCOON:057:1,2010-05-05T10:00:00Z,28.4460,-96.3961,0.0,3.0,192.0,3.8,'11111222,11111222,11111222' 
TCOON,ioos:station:TCOON:057:1,2010-05-05T11:00:00Z,28.4460,-96.3961,0.0,4.0,165.0,4.6,'11111222,11111222,11111222' 
TCOON,ioos:station:TCOON:057:1,2010-05-05T12:00:00Z,28.4460,-96.3961,0.0,3.8,170.0,4.2,'11111222,11111222,11111222' 
TCOON,ioos:station:TCOON:057:1,2010-05-05T13:00:00Z,28.4460,-96.3961,0.0,1.4,205.0,2.2,'11111222,11111222,11111222' 
TCOON,ioos:station:TCOON:057:1,2010-05-05T14:00:00Z,28.4460,-96.3961,0.0,3.7,198.0,4.3,'11111222,11111222,11111222' 
TCOON,ioos:station:TCOON:057:1,2010-05-05T15:00:00Z,28.4460,-96.3961,0.0,3.6,185.0,4.4,'11111222,11111222,11111222' 
TCOON,ioos:station:TCOON:057:1,2010-05-05T16:00:00Z,28.4460,-96.3961,0.0,4.4,177.0,5.0,'11111222,11111222,11111222' 
TCOON,ioos:station:TCOON:057:1,2010-05-05T17:00:00Z,28.4460,-96.3961,0.0,4.6,177.0,5.5,'11111222,11111222,11111222' 
TCOON,ioos:station:TCOON:057:1,2010-05-05T18:00:00Z,28.4460,-96.3961,0.0,4.8,172.0,5.7,'11111222,11111222,11111222' 
TCOON,ioos:station:TCOON:057:1,2010-05-05T19:00:00Z,28.4460,-96.3961,0.0,4.9,167.0,5.9,'11111222,11111222,11111222' 
TCOON,ioos:station:TCOON:057:1,2010-05-05T20:00:00Z,28.4460,-96.3961,0.0,6.1,174.0,6.9,'11111222,11111222,11111222' 
TCOON,ioos:station:TCOON:057:1,2010-05-05T21:00:00Z,28.4460,-96.3961,0.0,5.5,168.0,6.5,'11111222,11111222,11111222' 
TCOON,ioos:station:TCOON:057:1,2010-05-05T22:00:00Z,28.4460,-96.3961,0.0,4.7,166.0,5.5,'11111222,11111222,11111222' 
TCOON,ioos:station:TCOON:057:1,2010-05-05T23:00:00Z,28.4460,-96.3961,0.0,5.4,167.0,6.3,'11111222,11111222,11111222' 
TCOON,ioos:station:TCOON:057:1,2010-05-06T00:00:00Z,28.4460,-96.3961,0.0,5.4,177.0,6.1,'11111222,11111222,11111222' 
TCOON,ioos:station:TCOON:057:1,2010-05-06T01:00:00Z,28.4460,-96.3961,0.0,5.2,167.0,5.8,'11111222,11111222,11111222' 
TCOON,ioos:station:TCOON:057:1,2010-05-06T02:00:00Z,28.4460,-96.3961,0.0,5.3,165.0,6.0,'11111222,11111222,11111222' 
TCOON,ioos:station:TCOON:057:1,2010-05-06T03:00:00Z,28.4460,-96.3961,0.0,5.3,159.0,6.0,'11111222,11111222,11111222' 
TCOON,ioos:station:TCOON:057:1,2010-05-06T04:00:00Z,28.4460,-96.3961,0.0,5.2,163.0,6.1,'11111222,11111222,11111222' 
TCOON,ioos:station:TCOON:057:1,2010-05-06T05:00:00Z,28.4460,-96.3961,0.0,5.1,166.0,6.1,'11111222,11111222,11111222' 
TCOON,ioos:station:TCOON:057:1,2010-05-06T06:00:00Z,28.4460,-96.3961,0.0,6.2,172.0,7.0,'11111222,11111222,11111222' 
TCOON,ioos:station:TCOON:057:1,2010-05-06T07:00:00Z,28.4460,-96.3961,0.0,5.4,174.0,6.6,'11111222,11111222,11111222' 
TCOON,ioos:station:TCOON:057:1,2010-05-06T08:00:00Z,28.4460,-96.3961,0.0,6.4,169.0,7.1,'11111222,11111222,11111222' 
TCOON,ioos:station:TCOON:057:1,2010-05-06T09:00:00Z,28.4460,-96.3961,0.0,6.4,178.0,7.3,'11111222,11111222,11111222' 
TCOON,ioos:station:TCOON:057:1,2010-05-06T10:00:00Z,28.4460,-96.3961,0.0,6.0,173.0,7.3,'11111222,11111222,11111222' 
TCOON,ioos:station:TCOON:057:1,2010-05-06T11:00:00Z,28.4460,-96.3961,0.0,6.2,179.0,7.3,'11111222,11111222,11111222' 
TCOON,ioos:station:TCOON:057:1,2010-05-06T12:00:00Z,28.4460,-96.3961,0.0,4.9,184.0,5.6,'11111222,11111222,11111222' 
TCOON,ioos:station:TCOON:057:1,2010-05-06T13:00:00Z,28.4460,-96.3961,0.0,5.5,175.0,6.5,'11111222,11111222,11111222' 
TCOON,ioos:station:TCOON:057:1,2010-05-06T14:00:00Z,28.4460,-96.3961,0.0,5.8,161.0,6.4,'11111222,11111222,11111222' 
TCOON,ioos:station:TCOON:057:1,2010-05-06T15:00:00Z,28.4460,-96.3961,0.0,5.4,163.0,6.2,'11111222,11111222,11111222' 
TCOON,ioos:station:TCOON:057:1,2010-05-06T16:00:00Z,28.4460,-96.3961,0.0,4.7,160.0,5.5,'11111222,11111222,11111222' 
TCOON,ioos:station:TCOON:057:1,2010-05-06T17:00:00Z,28.4460,-96.3961,0.0,5.2,161.0,5.8,'11111222,11111222,11111222' 
TCOON,ioos:station:TCOON:057:1,2010-05-06T18:00:00Z,28.4460,-96.3961,0.0,5.3,148.0,6.0,'11111222,11111222,11111222' 
TCOON,ioos:station:TCOON:057:1,2010-05-06T19:00:00Z,28.4460,-96.3961,0.0,5.0,154.0,5.9,'11111222,11111222,11111222' 
TCOON,ioos:station:TCOON:057:1,2010-05-06T20:00:00Z,28.4460,-96.3961,0.0,5.4,150.0,6.4,'11111222,11111222,11111222' 
TCOON,ioos:station:TCOON:057:1,2010-05-06T21:00:00Z,28.4460,-96.3961,0.0,5.7,146.0,6.7,'11111222,11111222,11111222' 
TCOON,ioos:station:TCOON:057:1,2010-05-06T22:00:00Z,28.4460,-96.3961,0.0,5.9,152.0,6.7,'11111222,11111222,11111222' 
TCOON,ioos:station:TCOON:057:1,2010-05-06T23:00:00Z,28.4460,-96.3961,0.0,6.1,148.0,7.4,'11111222,11111222,11111222' 
TCOON,ioos:station:TCOON:057:1,2010-05-07T00:00:00Z,28.4460,-96.3961,0.0,6.3,147.0,6.9,'11111222,11111222,11111222' 
TCOON,ioos:station:TCOON:057:1,2010-05-07T01:00:00Z,28.4460,-96.3961,0.0,6.4,145.0,7.1,'11111222,11111222,11111222' 
TCOON,ioos:station:TCOON:057:1,2010-05-07T02:00:00Z,28.4460,-96.3961,0.0,6.2,143.0,6.9,'11111222,11111222,11111222' 
TCOON,ioos:station:TCOON:057:1,2010-05-07T03:00:00Z,28.4460,-96.3961,0.0,6.1,147.0,6.7,'11111222,11111222,11111222' 
TCOON,ioos:station:TCOON:057:1,2010-05-07T04:00:00Z,28.4460,-96.3961,0.0,7.1,145.0,8.4,'11111222,11111222,11111222' 
TCOON,ioos:station:TCOON:057:1,2010-05-07T05:00:00Z,28.4460,-96.3961,0.0,6.3,156.0,6.9,'11111222,11111222,11111222' 
TCOON,ioos:station:TCOON:057:1,2010-05-07T06:00:00Z,28.4460,-96.3961,0.0,5.1,162.0,6.1,'11111222,11111222,11111222' 
TCOON,ioos:station:TCOON:057:1,2010-05-07T07:00:00Z,28.4460,-96.3961,0.0,4.8,167.0,5.4,'11111222,11111222,11111222' 
TCOON,ioos:station:TCOON:057:1,2010-05-07T08:00:00Z,28.4460,-96.3961,0.0,5.7,181.0,6.6,'11111222,11111222,11111222' 
TCOON,ioos:station:TCOON:057:1,2010-05-07T10:00:00Z,28.4460,-96.3961,0.0,6.5,183.0,8.1,'11111222,11111222,11111222' 
TCOON,ioos:station:TCOON:057:1,2010-05-07T11:00:00Z,28.4460,-96.3961,0.0,6.9,178.0,8.0,'11111222,11111222,11111222' 
TCOON,ioos:station:TCOON:057:1,2010-05-07T12:00:00Z,28.4460,-96.3961,0.0,4.2,195.0,5.3,'11111222,11111222,11111222' 
TCOON,ioos:station:TCOON:057:1,2010-05-07T13:00:00Z,28.4460,-96.3961,0.0,5.2,189.0,6.1,'11111222,11111222,11111222' 
TCOON,ioos:station:TCOON:057:1,2010-05-07T14:00:00Z,28.4460,-96.3961,0.0,5.3,180.0,6.3,'11111222,11111222,11111222' 
TCOON,ioos:station:TCOON:057:1,2010-05-07T15:00:00Z,28.4460,-96.3961,0.0,5.6,177.0,6.6,'11111222,11111222,11111222' 
TCOON,ioos:station:TCOON:057:1,2010-05-07T16:00:00Z,28.4460,-96.3961,0.0,6.3,176.0,7.3,'11111222,11111222,11111222' 
TCOON,ioos:station:TCOON:057:1,2010-05-07T17:00:00Z,28.4460,-96.3961,0.0,5.9,177.0,6.7,'11111222,11111222,11111222' 
TCOON,ioos:station:TCOON:057:1,2010-05-07T18:00:00Z,28.4460,-96.3961,0.0,5.5,179.0,7.2,'11111222,11111222,11111222' 
TCOON,ioos:station:TCOON:057:1,2010-05-07T19:00:00Z,28.4460,-96.3961,0.0,5.1,175.0,6.3,'11111222,11111222,11111222' 
TCOON,ioos:station:TCOON:057:1,2010-05-07T20:00:00Z,28.4460,-96.3961,0.0,4.8,168.0,5.6,'11111222,11111222,11111222' 
TCOON,ioos:station:TCOON:057:1,2010-05-07T21:00:00Z,28.4460,-96.3961,0.0,3.5,164.0,4.2,'11111222,11111222,11111222' 
TCOON,ioos:station:TCOON:057:1,2010-05-07T22:00:00Z,28.4460,-96.3961,0.0,3.8,130.0,4.6,'11111222,11111222,11111222' 
TCOON,ioos:station:TCOON:057:1,2010-05-07T23:00:00Z,28.4460,-96.3961,0.0,3.6,126.0,4.3,'11111222,11111222,11111222' 
TCOON,ioos:station:TCOON:057:1,2010-05-08T00:00:00Z,28.4460,-96.3961,0.0,4.2,123.0,5.0,'11111222,11111222,11111222' 
TCOON,ioos:station:TCOON:057:1,2010-05-08T01:00:00Z,28.4460,-96.3961,0.0,4.3,124.0,5.1,'11111222,11111222,11111222' 
TCOON,ioos:station:TCOON:057:1,2010-05-08T02:00:00Z,28.4460,-96.3961,0.0,4.7,117.0,5.3,'11111222,11111222,11111222' 
TCOON,ioos:station:TCOON:057:1,2010-05-08T03:00:00Z,28.4460,-96.3961,0.0,5.2,118.0,6.2,'11111222,11111222,11111222' 
TCOON,ioos:station:TCOON:057:1,2010-05-08T04:00:00Z,28.4460,-96.3961,0.0,5.0,129.0,5.7,'11111222,11111222,11111222' 
TCOON,ioos:station:TCOON:057:1,2010-05-08T05:00:00Z,28.4460,-96.3961,0.0,4.6,122.0,5.0,'11111222,11111222,11111222' 
TCOON,ioos:station:TCOON:057:1,2010-05-08T06:00:00Z,28.4460,-96.3961,0.0,3.9,129.0,4.6,'11111222,11111222,11111222' 
TCOON,ioos:station:TCOON:057:1,2010-05-08T07:00:00Z,28.4460,-96.3961,0.0,2.8,115.0,3.3,'11111222,11111222,11111222' 
TCOON,ioos:station:TCOON:057:1,2010-05-08T08:00:00Z,28.4460,-96.3961,0.0,1.9,110.0,2.9,'11111222,11111222,11111222' 
TCOON,ioos:station:TCOON:057:1,2010-05-08T09:00:00Z,28.4460,-96.3961,0.0,2.1,130.0,2.5,'11111222,11111222,11111222' 
TCOON,ioos:station:TCOON:057:1,2010-05-08T10:00:00Z,28.4460,-96.3961,0.0,0.0,125.0,99.0,'11111222,11111222,11144222' 
TCOON,ioos:station:TCOON:057:1,2010-05-08T11:00:00Z,28.4460,-96.3961,0.0,2.0,47.0,3.5,'11111222,11111222,11111222' 
TCOON,ioos:station:TCOON:057:1,2010-05-08T12:00:00Z,28.4460,-96.3961,0.0,3.6,54.0,4.2,'11111222,11111222,11111222' 
TCOON,ioos:station:TCOON:057:1,2010-05-08T13:00:00Z,28.4460,-96.3961,0.0,3.1,67.0,3.7,'11111222,11111222,11111222' 
TCOON,ioos:station:TCOON:057:1,2010-05-08T14:00:00Z,28.4460,-96.3961,0.0,3.6,67.0,4.4,'11111222,11111222,11111222' 
TCOON,ioos:station:TCOON:057:1,2010-05-08T15:00:00Z,28.4460,-96.3961,0.0,4.7,26.0,5.4,'11111222,11111222,11111222' 
TCOON,ioos:station:TCOON:057:1,2010-05-08T16:00:00Z,28.4460,-96.3961,0.0,4.8,28.0,6.0,'11111222,11111222,11111222' 
TCOON,ioos:station:TCOON:057:1,2010-05-08T17:00:00Z,28.4460,-96.3961,0.0,4.5,56.0,5.2,'11111222,11111222,11111222' 
TCOON,ioos:station:TCOON:057:1,2010-05-08T18:00:00Z,28.4460,-96.3961,0.0,4.2,83.0,4.8,'11111222,11111222,11111222' 
TCOON,ioos:station:TCOON:057:1,2010-05-08T19:00:00Z,28.4460,-96.3961,0.0,4.8,92.0,5.5,'11111222,11111222,11111222' 
TCOON,ioos:station:TCOON:057:1,2010-05-08T20:00:00Z,28.4460,-96.3961,0.0,6.5,88.0,7.5,'11111222,11111222,11111222' 
TCOON,ioos:station:TCOON:057:1,2010-05-08T21:00:00Z,28.4460,-96.3961,0.0,7.9,83.0,9.1,'11111222,11111222,11111222' 
TCOON,ioos:station:TCOON:057:1,2010-05-08T22:00:00Z,28.4460,-96.3961,0.0,7.7,74.0,9.5,'11111222,11111222,11111222' 
TCOON,ioos:station:TCOON:057:1,2010-05-08T23:00:00Z,28.4460,-96.3961,0.0,9.5,70.0,10.7,'11111222,11111222,11111222' 
TCOON,ioos:station:TCOON:057:1,2010-05-09T00:00:00Z,28.4460,-96.3961,0.0,8.0,68.0,9.8,'11111222,11111222,11111222' 
TCOON,ioos:station:TCOON:057:1,2010-05-09T01:00:00Z,28.4460,-96.3961,0.0,7.3,77.0,8.5,'11111222,11111222,11111222' 
TCOON,ioos:station:TCOON:057:1,2010-05-09T02:00:00Z,28.4460,-96.3961,0.0,6.9,82.0,8.2,'11111222,11111222,11111222' 
TCOON,ioos:station:TCOON:057:1,2010-05-09T03:00:00Z,28.4460,-96.3961,0.0,7.1,96.0,8.8,'11111222,11111222,11111222' 
TCOON,ioos:station:TCOON:057:1,2010-05-09T04:00:00Z,28.4460,-96.3961,0.0,6.8,108.0,8.1,'11111222,11111222,11111222' 
TCOON,ioos:station:TCOON:057:1,2010-05-09T05:00:00Z,28.4460,-96.3961,0.0,6.5,107.0,7.7,'11111222,11111222,11111222' 
TCOON,ioos:station:TCOON:057:1,2010-05-09T06:00:00Z,28.4460,-96.3961,0.0,6.1,96.0,6.7,'11111222,11111222,11111222' 
TCOON,ioos:station:TCOON:057:1,2010-05-09T07:00:00Z,28.4460,-96.3961,0.0,5.9,96.0,7.1,'11111222,11111222,11111222' 
TCOON,ioos:station:TCOON:057:1,2010-05-09T08:00:00Z,28.4460,-96.3961,0.0,6.1,98.0,7.8,'11111222,11111222,11111222' 
TCOON,ioos:station:TCOON:057:1,2010-05-09T09:00:00Z,28.4460,-96.3961,0.0,5.5,106.0,6.8,'11111222,11111222,11111222' 
TCOON,ioos:station:TCOON:057:1,2010-05-09T10:00:00Z,28.4460,-96.3961,0.0,6.5,106.0,7.8,'11111222,11111222,11111222' 
TCOON,ioos:station:TCOON:057:1,2010-05-09T11:00:00Z,28.4460,-96.3961,0.0,5.1,116.0,5.8,'11111222,11111222,11111222' 
TCOON,ioos:station:TCOON:057:1,2010-05-09T12:00:00Z,28.4460,-96.3961,0.0,3.5,110.0,4.0,'11111222,11111222,11111222' 
TCOON,ioos:station:TCOON:057:1,2010-05-09T13:00:00Z,28.4460,-96.3961,0.0,5.1,111.0,5.9,'11111222,11111222,11111222' 
TCOON,ioos:station:TCOON:057:1,2010-05-09T14:00:00Z,28.4460,-96.3961,0.0,5.8,120.0,6.9,'11111222,11111222,11111222' 
TCOON,ioos:station:TCOON:057:1,2010-05-09T15:00:00Z,28.4460,-96.3961,0.0,7.5,114.0,8.5,'11111222,11111222,11111222' 
TCOON,ioos:station:TCOON:057:1,2010-05-09T16:00:00Z,28.4460,-96.3961,0.0,8.6,119.0,10.4,'11111222,11111222,11111222' 
TCOON,ioos:station:TCOON:057:1,2010-05-09T17:00:00Z,28.4460,-96.3961,0.0,6.8,117.0,7.8,'11111222,11111222,11111222' 